Total_Precipitation_Accumulation
1.90 2.04 1.94 1.84 1.85 1.83 1.95 2.11 2.08 1.82 1.56 1.38 1.22 1.06 1.03 1.03 1.03 0.99 0.98 0.90 0.78 0.71 0.67 0.64 0.64 0.68 0.76 0.92 1.09 1.26 1.36 1.44 1.52 1.59 1.70 1.85 2.03 2.23
1.82 1.89 1.88 1.86 2.03 1.97 1.98 2.09 2.19 2.09 1.66 1.45 1.35 1.11 1.19 0.95 0.94 0.93 0.96 0.87 0.70 0.62 0.60 0.59 0.59 0.62 0.63 0.68 0.79 0.92 1.07 1.18 1.26 1.35 1.38 1.40 1.43 1.54
1.48 1.53 1.53 1.69 1.86 1.82 1.88 1.95 2.06 2.13 1.78 1.58 1.66 1.55 1.56 1.32 1.15 1.03 0.87 0.85 0.75 0.66 0.58 0.53 0.53 0.56 0.62 0.63 0.63 0.69 0.80 0.92 1.00 1.12 1.27 1.36 1.40 1.43
1.42 1.46 1.38 1.48 1.60 1.62 1.73 1.80 1.94 2.14 1.94 1.80 1.88 1.92 1.86 1.66 1.52 1.33 0.99 0.80 0.82 0.82 0.65 0.54 0.50 0.52 0.59 0.62 0.59 0.58 0.62 0.68 0.73 0.81 0.96 1.11 1.25 1.37
1.25 1.24 1.22 1.33 1.38 1.46 1.57 1.59 1.68 1.97 2.06 1.90 1.92 2.19 2.12 1.92 1.93 1.62 1.36 1.24 0.89 0.85 0.73 0.59 0.56 0.54 0.56 0.64 0.65 0.60 0.58 0.58 0.61 0.67 0.79 0.94 1.04 1.13
1.03 0.94 0.95 1.09 1.18 1.31 1.40 1.50 1.61 1.79 1.98 2.00 1.95 2.12 2.19 2.07 2.20 1.95 1.67 1.49 1.21 0.94 0.88 0.69 0.62 0.61 0.59 0.60 0.64 0.67 0.68 0.66 0.67 0.73 0.78 0.84 0.96 1.05
1.01 0.86 0.77 0.79 0.87 1.03 1.05 1.24 1.47 1.63 1.72 1.85 1.91 2.01 2.21 2.24 2.09 2.03 1.85 1.68 1.56 1.40 1.37 1.00 0.74 0.65 0.64 0.63 0.67 0.74 0.80 0.82 0.84 0.90 0.99 1.04 1.07 1.11
1.04 1.01 0.88 0.78 0.75 0.79 0.83 0.90 1.02 1.17 1.36 1.59 1.67 1.77 1.99 2.20 2.20 2.22 2.13 1.91 1.72 1.57 1.69 1.65 1.31 1.04 0.85 0.67 0.68 0.74 0.85 0.94 0.98 1.03 1.10 1.24 1.36 1.36
1.05 1.03 0.83 0.70 0.76 0.77 0.79 0.79 0.83 0.82 0.90 1.12 1.28 1.33 1.54 1.86 2.18 2.25 2.33 2.20 1.96 1.88 1.98 2.03 2.07 1.80 1.27 0.96 0.92 0.80 0.84 0.95 1.02 1.07 1.14 1.19 1.35 1.51
0.99 0.99 0.97 0.92 0.86 0.89 0.91 0.87 0.76 0.73 0.75 0.76 0.84 1.05 1.23 1.50 1.87 2.05 2.33 2.49 2.32 2.22 2.26 2.30 2.32 2.52 2.02 1.47 1.27 1.04 0.97 1.00 1.06 1.10 1.15 1.23 1.30 1.39
0.95 0.97 0.97 0.93 0.93 0.89 0.91 0.93 0.85 0.81 0.81 0.80 0.79 0.91 1.10 1.24 1.52 1.86 2.12 2.28 2.34 2.41 2.47 2.54 2.46 2.61 2.89 2.41 1.70 1.31 1.06 0.99 1.02 1.08 1.13 1.24 1.31 1.31
1.08 1.07 0.98 0.88 0.95 0.90 0.83 0.91 0.93 0.94 0.98 0.95 0.92 0.95 1.01 1.16 1.41 1.67 1.91 2.14 2.17 2.25 2.14 2.13 2.14 2.26 2.68 2.87 2.49 1.88 1.41 1.20 1.07 1.03 1.06 1.16 1.29 1.19
1.18 1.18 1.12 0.97 0.82 0.78 0.78 0.82 0.86 0.95 1.06 1.08 1.11 1.16 1.23 1.26 1.29 1.46 1.71 1.94 2.01 1.85 1.65 1.76 1.93 2.01 2.08 2.26 2.42 2.36 1.98 1.63 1.38 1.20 1.12 1.10 1.14 1.14
1.39 1.36 1.30 1.14 0.96 0.83 0.74 0.77 0.85 0.88 0.98 1.09 1.09 1.09 1.14 1.16 1.20 1.35 1.56 1.71 1.81 1.80 1.74 1.82 1.96 1.97 2.02 2.04 2.05 2.11 2.14 1.99 1.81 1.66 1.54 1.50 1.35 1.30
1.55 1.55 1.46 1.23 1.05 0.89 0.81 0.83 0.86 0.86 0.93 1.00 0.97 0.93 0.97 1.03 1.12 1.27 1.43 1.59 1.65 1.60 1.60 1.69 1.76 1.76 1.85 1.90 1.84 1.76 1.84 1.94 1.95 1.92 1.93 1.90 1.76 1.62
1.57 1.51 1.44 1.33 1.17 1.09 1.03 0.96 0.89 0.95 0.99 0.98 1.00 0.99 1.04 1.13 1.21 1.26 1.38 1.52 1.67 1.63 1.58 1.62 1.66 1.74 1.70 1.57 1.52 1.39 1.38 1.50 1.66 1.81 2.01 2.18 2.21 2.14
1.71 1.58 1.51 1.40 1.29 1.23 1.19 1.11 1.05 1.05 1.04 1.03 1.06 1.05 1.05 1.10 1.17 1.21 1.30 1.35 1.42 1.44 1.47 1.53 1.64 1.75 1.74 1.67 1.54 1.36 1.31 1.25 1.29 1.57 1.88 2.12 2.15 2.02
1.42 1.41 1.41 1.38 1.32 1.27 1.24 1.17 1.13 1.09 1.08 1.08 1.09 1.07 1.03 1.03 1.11 1.22 1.32 1.31 1.27 1.26 1.33 1.38 1.59 1.79 1.83 1.66 1.34 1.22 1.21 1.18 1.18 1.35 1.53 1.62 1.63 1.54
1.19 1.26 1.24 1.24 1.23 1.22 1.21 1.15 1.11 1.09 1.14 1.15 1.09 1.09 1.08 1.09 1.12 1.21 1.31 1.33 1.27 1.24 1.33 1.47 1.59 1.70 1.66 1.47 1.28 1.05 1.06 1.08 1.19 1.33 1.40 1.39 1.29 1.17
1.11 1.17 1.18 1.19 1.20 1.22 1.22 1.16 1.16 1.17 1.20 1.22 1.20 1.19 1.20 1.21 1.22 1.24 1.30 1.35 1.31 1.28 1.36 1.46 1.49 1.51 1.50 1.39 1.30 1.17 0.97 1.03 1.09 1.18 1.26 1.28 1.17 1.04
1.21 1.24 1.24 1.22 1.24 1.29 1.29 1.25 1.25 1.22 1.20 1.23 1.23 1.22 1.19 1.19 1.24 1.25 1.31 1.37 1.34 1.30 1.27 1.26 1.33 1.42 1.54 1.70 1.58 1.36 1.20 1.07 1.09 1.10 1.17 1.28 1.28 1.22
1.17 1.22 1.23 1.22 1.24 1.29 1.27 1.25 1.26 1.23 1.20 1.19 1.17 1.18 1.18 1.15 1.17 1.22 1.26 1.28 1.26 1.22 1.18 1.19 1.34 1.51 1.59 1.62 1.52 1.40 1.35 1.29 1.23 1.18 1.12 1.06 1.07 1.08
1.15 1.18 1.14 1.11 1.14 1.16 1.11 1.10 1.14 1.19 1.20 1.19 1.17 1.14 1.13 1.10 1.08 1.14 1.19 1.23 1.24 1.26 1.29 1.33 1.36 1.43 1.48 1.50 1.52 1.48 1.39 1.36 1.36 1.34 1.25 1.06 0.81 0.70